NKS236 SKRG-KFLL

Flight info

Callsign NKS236
Flight time N/A
Altitude 33000
Route LATIS1B LATIS W65 BUTAL UP778 CTG UM779 KILER DCT MLY UT172 BEMOL UL417 BORDO OLAHS3
Aircraft A21N/M-SDE2E3FGHIJ1RWXY/LB1

Departure

Time 2026-04-25 00:33
Airport Jose Maria Córdova International Airport (SKRG)

Arrival

Time N/A
Airport Fort Lauderdale Hollywood International Airport (KFLL)
Time Latitude Longitude Altitude Speed Heading
2026-04-24 23:52 6.17267 -75.42719 7022 ft 0 kts 230°
2026-04-25 00:19 6.17270 -75.42716 7021 ft 3 kts 230°
2026-04-25 00:20 6.17287 -75.42695 7021 ft 4 kts 230°
2026-04-25 00:20 6.17304 -75.42678 7021 ft 4 kts 208°
2026-04-25 00:20 6.17324 -75.42676 7022 ft 4 kts 145°
2026-04-25 00:20 6.17341 -75.42695 7025 ft 4 kts 120°
2026-04-25 00:21 6.17354 -75.42718 7022 ft 3 kts 124°
2026-04-25 00:21 6.17356 -75.42721 7022 ft 0 kts 124°
2026-04-25 00:26 6.17352 -75.42716 7023 ft 2 kts 124°
2026-04-25 00:26 6.17336 -75.42693 7022 ft 6 kts 125°
2026-04-25 00:27 6.17311 -75.42656 7023 ft 7 kts 125°
2026-04-25 00:27 6.17264 -75.42623 7022 ft 10 kts 162°
2026-04-25 00:27 6.17190 -75.42616 7023 ft 11 kts 178°
2026-04-25 00:27 6.17106 -75.42613 7022 ft 13 kts 176°
2026-04-25 00:28 6.17020 -75.42576 7024 ft 14 kts 149°
2026-04-25 00:28 6.16930 -75.42523 7023 ft 15 kts 149°
2026-04-25 00:28 6.16829 -75.42486 7019 ft 16 kts 181°
2026-04-25 00:28 6.16714 -75.42485 7016 ft 17 kts 179°
2026-04-25 00:29 6.16596 -75.42483 7009 ft 18 kts 180°
2026-04-25 00:29 6.16471 -75.42483 7002 ft 18 kts 180°
2026-04-25 00:29 6.16342 -75.42482 6997 ft 19 kts 179°
2026-04-25 00:29 6.16209 -75.42481 6992 ft 19 kts 179°
2026-04-25 00:30 6.16072 -75.42480 6986 ft 20 kts 179°
2026-04-25 00:30 6.15933 -75.42479 6987 ft 18 kts 179°
2026-04-25 00:30 6.15802 -75.42478 6986 ft 19 kts 179°
2026-04-25 00:30 6.15665 -75.42477 6982 ft 20 kts 179°
2026-04-25 00:31 6.15523 -75.42476 6984 ft 21 kts 179°
2026-04-25 00:31 6.15375 -75.42475 6984 ft 22 kts 179°
2026-04-25 00:31 6.15223 -75.42474 6983 ft 22 kts 179°
2026-04-25 00:31 6.15064 -75.42473 6983 ft 23 kts 179°
2026-04-25 00:32 6.14934 -75.42469 6983 ft 14 kts 161°
2026-04-25 00:32 6.14902 -75.42382 6982 ft 15 kts 76°
2026-04-25 00:32 6.14978 -75.42310 6982 ft 16 kts 19°
2026-04-25 00:32 6.15144 -75.42305 6984 ft 46 kts 360°
2026-04-25 00:33 6.15760 -75.42310 6985 ft 130 kts 359°
2026-04-25 00:33 6.16909 -75.42314 7150 ft 183 kts
2026-04-25 00:33 6.18215 -75.42314 8074 ft 197 kts 359°
2026-04-25 00:33 6.19582 -75.42317 8773 ft 195 kts 359°
2026-04-25 00:34 6.20975 -75.42324 9141 ft 205 kts 358°
2026-04-25 00:34 6.22416 -75.42148 9521 ft 213 kts 18°
2026-04-25 00:34 6.23626 -75.41249 9772 ft 231 kts 55°
2026-04-25 00:34 6.24144 -75.39703 10008 ft 247 kts 87°
2026-04-25 00:35 6.23874 -75.37948 10237 ft 266 kts 103°
2026-04-25 00:35 6.23827 -75.36027 10425 ft 286 kts 77°
2026-04-25 00:35 6.24528 -75.34077 10640 ft 305 kts 65°
2026-04-25 00:35 6.25479 -75.32094 10881 ft 324 kts 63°
2026-04-25 00:36 6.26492 -75.30041 11195 ft 338 kts 63°
2026-04-25 00:36 6.27568 -75.27875 11724 ft 345 kts 61°
2026-04-25 00:36 6.28959 -75.25955 12302 ft 347 kts 42°
2026-04-25 00:36 6.30975 -75.24639 12905 ft 348 kts 20°
2026-04-25 00:37 6.33337 -75.24132 13510 ft 348 kts
2026-04-25 00:37 6.35760 -75.24156 14108 ft 350 kts 356°
2026-04-25 00:37 6.38206 -75.24245 14638 ft 354 kts 357°
2026-04-25 00:37 6.40678 -75.24303 15192 ft 357 kts 358°
2026-04-25 00:38 6.43177 -75.24333 15746 ft 360 kts 358°
2026-04-25 00:38 6.45689 -75.24395 16293 ft 362 kts 353°
2026-04-25 00:38 6.48169 -75.24875 16839 ft 364 kts 345°
2026-04-25 00:38 6.50638 -75.25528 17394 ft 368 kts 343°
2026-04-25 00:39 6.53092 -75.26198 17941 ft 370 kts 344°
2026-04-25 00:39 6.55597 -75.26869 18481 ft 373 kts 344°
2026-04-25 00:39 6.58127 -75.27540 18933 ft 376 kts 344°
2026-04-25 00:39 6.60673 -75.28211 19382 ft 379 kts 344°
2026-04-25 00:40 6.63238 -75.28888 19815 ft 381 kts 344°
2026-04-25 00:40 6.65815 -75.29567 20261 ft 384 kts 344°
2026-04-25 00:40 6.68412 -75.30250 20702 ft 387 kts 344°
2026-04-25 00:40 6.71018 -75.30935 21131 ft 389 kts 344°
2026-04-25 00:41 6.73650 -75.31631 21567 ft 392 kts 344°
2026-04-25 00:41 6.76302 -75.32329 22007 ft 395 kts 345°
2026-04-25 00:41 6.78968 -75.33027 22414 ft 397 kts 345°
2026-04-25 00:41 6.81627 -75.33723 22815 ft 400 kts 345°
2026-04-25 00:42 6.84334 -75.34436 23220 ft 403 kts 345°
2026-04-25 00:42 6.87057 -75.35153 23618 ft 405 kts 345°
2026-04-25 00:42 6.89796 -75.35871 23962 ft 408 kts 345°
2026-04-25 00:42 6.92556 -75.36596 24281 ft 410 kts 345°
2026-04-25 00:43 6.95324 -75.37326 24593 ft 413 kts 345°
2026-04-25 00:43 6.98116 -75.38060 24900 ft 415 kts 345°
2026-04-25 00:43 7.00930 -75.38792 25189 ft 419 kts 346°
2026-04-25 00:43 7.03817 -75.39260 25476 ft 422 kts 354°
2026-04-25 00:44 7.05761 -75.39426 25676 ft 424 kts 355°
2026-04-25 00:44 7.08707 -75.39645 25959 ft 427 kts 355°
2026-04-25 00:44 7.11684 -75.39867 26247 ft 430 kts 355°
2026-04-25 00:44 7.15644 -75.40172 26638 ft 433 kts 355°
2026-04-25 00:45 7.17682 -75.40331 26834 ft 434 kts 355°
2026-04-25 00:45 7.20698 -75.40570 27133 ft 437 kts 355°
2026-04-25 00:45 7.23745 -75.40813 27413 ft 439 kts 355°
2026-04-25 00:45 7.26762 -75.41051 27700 ft 441 kts 355°
2026-04-25 00:46 7.29828 -75.41295 27985 ft 443 kts 355°
2026-04-25 00:46 7.32910 -75.41539 28265 ft 445 kts 355°
2026-04-25 00:46 7.39123 -75.42034 28810 ft 450 kts 355°
2026-04-25 00:47 7.42249 -75.42282 29081 ft 451 kts 355°
2026-04-25 00:47 7.45394 -75.42536 29347 ft 453 kts 355°
2026-04-25 00:47 7.48548 -75.42785 29600 ft 455 kts 355°
2026-04-25 00:47 7.51683 -75.43033 29853 ft 457 kts 355°
2026-04-25 00:48 7.54875 -75.43288 30100 ft 459 kts 355°
2026-04-25 00:48 7.58067 -75.43541 30313 ft 460 kts 355°
2026-04-25 00:48 7.61266 -75.43797 30505 ft 462 kts 355°
2026-04-25 00:48 7.64477 -75.44054 30746 ft 463 kts 355°
2026-04-25 00:49 7.67681 -75.44309 31018 ft 462 kts 355°
2026-04-25 00:49 7.70899 -75.44566 31279 ft 462 kts 355°
2026-04-25 00:49 7.74062 -75.44818 31523 ft 462 kts 355°
2026-04-25 00:49 7.77278 -75.45075 31770 ft 462 kts 355°
2026-04-25 00:50 7.80482 -75.45332 31993 ft 463 kts 355°
2026-04-25 00:50 7.86917 -75.45760 32031 ft 463 kts 358°
2026-04-25 00:51 7.93316 -75.46460 31999 ft 462 kts 351°
2026-04-25 00:51 7.99637 -75.47665 31987 ft 465 kts 348°
2026-04-25 00:52 8.06027 -75.48967 31992 ft 477 kts 348°
2026-04-25 00:52 8.12626 -75.50271 31980 ft 488 kts 348°
2026-04-25 00:53 8.19349 -75.51589 31975 ft 496 kts 348°
2026-04-25 00:53 8.26132 -75.52916 31964 ft 497 kts 348°
2026-04-25 00:54 8.32924 -75.54249 31959 ft 497 kts 348°
2026-04-25 00:54 8.39717 -75.55592 31952 ft 497 kts 348°
2026-04-25 00:55 8.46463 -75.56909 31948 ft 497 kts 348°
2026-04-25 00:55 8.53255 -75.58244 31948 ft 497 kts 348°
2026-04-25 00:56 8.60051 -75.59582 31932 ft 497 kts 348°
2026-04-25 00:56 8.66845 -75.60909 31914 ft 497 kts 348°
2026-04-25 00:57 8.73655 -75.62245 31902 ft 497 kts 348°
2026-04-25 00:57 8.80407 -75.63579 31891 ft 497 kts 348°
2026-04-25 00:58 8.87207 -75.64915 31889 ft 497 kts 348°
2026-04-25 00:58 8.94005 -75.66249 31894 ft 497 kts 348°
2026-04-25 00:59 9.00758 -75.67582 31894 ft 497 kts 348°
2026-04-25 00:59 9.07558 -75.68921 31901 ft 497 kts 348°
2026-04-25 01:00 9.14348 -75.70259 31904 ft 497 kts 348°
2026-04-25 01:00 9.21109 -75.71592 31911 ft 497 kts 348°
2026-04-25 01:01 9.27914 -75.72933 31914 ft 498 kts 348°
2026-04-25 01:01 9.34720 -75.74273 31913 ft 498 kts 348°
2026-04-25 01:02 9.41535 -75.75618 31911 ft 498 kts 348°
2026-04-25 01:02 9.48310 -75.76953 31910 ft 498 kts 348°
2026-04-25 01:03 9.55116 -75.78300 31913 ft 498 kts 348°
2026-04-25 01:03 9.61914 -75.79646 31910 ft 498 kts 348°
2026-04-25 01:04 9.68733 -75.80996 31913 ft 499 kts 348°
2026-04-25 01:04 9.75551 -75.82344 31916 ft 499 kts 348°
2026-04-25 01:05 9.82335 -75.83680 31908 ft 499 kts 348°
2026-04-25 01:05 9.89162 -75.85028 31911 ft 499 kts 348°
2026-04-25 01:06 9.95985 -75.86383 31912 ft 498 kts 347°
2026-04-25 01:06 10.02757 -75.87731 31914 ft 498 kts 347°
2026-04-25 01:07 10.09571 -75.89075 31914 ft 498 kts 347°
2026-04-25 01:07 10.16390 -75.90429 31915 ft 498 kts 347°
2026-04-25 01:08 10.23151 -75.91778 31919 ft 498 kts 347°
2026-04-25 01:08 10.29800 -75.93090 31915 ft 498 kts 347°
2026-04-25 01:09 10.36613 -75.94438 31914 ft 498 kts 347°
2026-04-25 01:09 10.43430 -75.95792 31916 ft 498 kts 347°
2026-04-25 01:10 10.50235 -75.97146 31916 ft 498 kts 347°
2026-04-25 01:10 10.56996 -75.98491 31916 ft 498 kts 347°
2026-04-25 01:11 10.63803 -75.99845 31916 ft 498 kts 347°
2026-04-25 01:11 10.70602 -76.01193 31918 ft 498 kts 347°
2026-04-25 01:12 10.77413 -76.02555 31919 ft 498 kts 347°
2026-04-25 01:12 10.84166 -76.03917 31918 ft 498 kts 347°
2026-04-25 01:13 10.90960 -76.05271 31917 ft 498 kts 347°
2026-04-25 01:13 10.97780 -76.06641 31918 ft 498 kts 347°
2026-04-25 01:14 11.04549 -76.07978 31918 ft 498 kts 347°
2026-04-25 01:14 11.11346 -76.09327 31918 ft 498 kts 346°
2026-04-25 01:15 11.18161 -76.10687 31923 ft 498 kts 346°
2026-04-25 01:15 11.24971 -76.12034 31919 ft 498 kts 346°
2026-04-25 01:16 11.31791 -76.13391 31920 ft 498 kts 346°
2026-04-25 01:16 11.38570 -76.14746 31919 ft 498 kts 346°
2026-04-25 01:17 11.45387 -76.16110 31915 ft 498 kts 346°
2026-04-25 01:17 11.52198 -76.17471 31918 ft 498 kts 346°
2026-04-25 01:18 11.59006 -76.18836 31919 ft 498 kts 346°
2026-04-25 01:18 11.65766 -76.20188 31921 ft 498 kts 346°
2026-04-25 01:19 11.72576 -76.21552 31922 ft 498 kts 346°
2026-04-25 01:19 11.79392 -76.22917 31922 ft 498 kts 346°
2026-04-25 01:20 11.86201 -76.24284 31926 ft 497 kts 346°
2026-04-25 01:20 11.92985 -76.25645 31925 ft 497 kts 346°
2026-04-25 01:21 11.99745 -76.27002 31919 ft 497 kts 346°
2026-04-25 01:21 12.06578 -76.28381 31921 ft 497 kts 346°
2026-04-25 01:22 12.13324 -76.29731 31922 ft 496 kts 346°
2026-04-25 01:22 12.20110 -76.31095 31924 ft 496 kts 345°
2026-04-25 01:23 12.26877 -76.32457 31925 ft 496 kts 345°
2026-04-25 01:23 12.33653 -76.33820 31926 ft 495 kts 345°
2026-04-25 01:24 12.40370 -76.35171 31924 ft 495 kts 345°
2026-04-25 01:24 12.47140 -76.36536 31927 ft 494 kts 345°
2026-04-25 01:25 12.53901 -76.37896 31925 ft 494 kts 345°
2026-04-25 01:25 12.60602 -76.39249 31925 ft 493 kts 345°
2026-04-25 01:26 12.67353 -76.40612 31926 ft 493 kts 345°
2026-04-25 01:26 12.74090 -76.41970 31927 ft 493 kts 345°
2026-04-25 01:27 12.80826 -76.43341 31925 ft 492 kts 345°
2026-04-25 01:27 12.86429 -76.44467 31927 ft 492 kts 345°
2026-04-25 01:28 12.95379 -76.46272 31927 ft 492 kts 345°
2026-04-25 01:28 13.04320 -76.48088 31925 ft 491 kts 344°
2026-04-25 01:29 13.11002 -76.49439 31923 ft 491 kts 344°
2026-04-25 01:29 13.17716 -76.50797 31927 ft 491 kts 344°
2026-04-25 01:30 13.24421 -76.52157 31928 ft 491 kts 344°
2026-04-25 01:30 13.31094 -76.53511 31926 ft 490 kts 344°
2026-04-25 01:31 13.36700 -76.54649 31925 ft 490 kts 344°
2026-04-25 01:31 13.43361 -76.56004 31924 ft 490 kts 344°
2026-04-25 01:32 13.50045 -76.57359 31926 ft 489 kts 344°
2026-04-25 01:32 13.56734 -76.58716 31927 ft 489 kts 344°
2026-04-25 01:33 13.63408 -76.60076 31926 ft 488 kts 343°
2026-04-25 01:33 13.70033 -76.61425 31933 ft 488 kts 343°
2026-04-25 01:34 13.76692 -76.62781 31932 ft 488 kts 343°
2026-04-25 01:34 13.83362 -76.64142 31929 ft 487 kts 343°
2026-04-25 01:35 13.89982 -76.65491 31929 ft 487 kts 343°
2026-04-25 01:35 13.96654 -76.66853 31929 ft 487 kts 343°
2026-04-25 01:36 14.03315 -76.68210 31930 ft 487 kts 343°
2026-04-25 01:36 14.09921 -76.69561 31931 ft 486 kts 343°
2026-04-25 01:37 14.16572 -76.70916 31928 ft 486 kts 343°
2026-04-25 01:37 14.23219 -76.72279 31930 ft 486 kts 343°
2026-04-25 01:38 14.29818 -76.73627 31931 ft 486 kts 343°
2026-04-25 01:38 14.36479 -76.74989 31931 ft 486 kts 343°
2026-04-25 01:39 14.43120 -76.76347 31929 ft 486 kts 343°
2026-04-25 01:39 14.49714 -76.77702 31934 ft 486 kts 343°
2026-04-25 01:40 14.56346 -76.79066 31933 ft 486 kts 343°
2026-04-25 01:40 14.62990 -76.80430 31937 ft 486 kts 343°
2026-04-25 01:41 14.69592 -76.81784 31936 ft 485 kts 343°
2026-04-25 01:41 14.76223 -76.83145 31935 ft 485 kts 343°
2026-04-25 01:42 14.82847 -76.84510 31935 ft 485 kts 343°
2026-04-25 01:42 14.89464 -76.85871 31938 ft 484 kts 343°
2026-04-25 01:43 14.96091 -76.87234 31935 ft 484 kts 343°
2026-04-25 01:43 15.02779 -76.87976 31941 ft 493 kts 356°
2026-04-25 01:44 15.09639 -76.87728 31946 ft 493 kts 357°
2026-04-25 01:44 15.16493 -76.87477 31939 ft 492 kts 356°
2026-04-25 01:45 15.23336 -76.87244 31939 ft 491 kts 356°
2026-04-25 01:45 15.30171 -76.87006 31943 ft 490 kts 356°
2026-04-25 01:46 15.36987 -76.86771 31944 ft 490 kts 356°
2026-04-25 01:46 15.43808 -76.86534 31945 ft 489 kts 356°
2026-04-25 01:47 15.50575 -76.86295 31942 ft 489 kts 356°
2026-04-25 01:47 15.57366 -76.86054 31938 ft 488 kts 356°
2026-04-25 01:48 15.64172 -76.85813 31938 ft 488 kts 356°
2026-04-25 01:48 15.70954 -76.85576 31938 ft 487 kts 356°
2026-04-25 01:49 15.77748 -76.85334 31943 ft 487 kts 356°
2026-04-25 01:49 15.84531 -76.85103 31941 ft 487 kts 356°
2026-04-25 01:50 15.91313 -76.84870 31938 ft 488 kts 356°
2026-04-25 01:50 15.98056 -76.84628 31938 ft 488 kts 356°
2026-04-25 01:51 16.04856 -76.84394 31944 ft 488 kts 356°
2026-04-25 01:51 16.11646 -76.84160 31943 ft 488 kts 356°
2026-04-25 01:52 16.16148 -76.84002 31941 ft 488 kts 356°
2026-04-25 01:52 16.21837 -76.83801 31942 ft 488 kts 356°
2026-04-25 01:53 16.32032 -76.83437 31942 ft 488 kts 356°
2026-04-25 01:53 16.38781 -76.83200 31942 ft 489 kts 356°
2026-04-25 01:54 16.45623 -76.82965 31943 ft 488 kts 356°
2026-04-25 01:54 16.52383 -76.82731 31943 ft 489 kts 356°
2026-04-25 01:55 16.59173 -76.82492 31946 ft 488 kts 356°
2026-04-25 01:55 16.65955 -76.82254 31947 ft 487 kts 356°
2026-04-25 01:56 16.72742 -76.82015 31946 ft 487 kts 356°
2026-04-25 01:56 16.79509 -76.81775 31950 ft 486 kts 357°
2026-04-25 01:57 16.89640 -76.81425 31945 ft 485 kts 357°
2026-04-25 01:58 16.96346 -76.81185 31949 ft 484 kts 357°
2026-04-25 01:58 17.03083 -76.80949 31945 ft 484 kts 357°
2026-04-25 01:59 17.09811 -76.80712 31943 ft 483 kts 357°
2026-04-25 01:59 17.16530 -76.80470 31943 ft 483 kts 357°
2026-04-25 02:00 17.23263 -76.80221 31938 ft 482 kts 357°
2026-04-25 02:00 17.26611 -76.80099 31938 ft 482 kts 357°
2026-04-25 02:02 17.49589 -76.79294 31933 ft 478 kts 357°
2026-04-25 02:02 17.56250 -76.79045 31930 ft 478 kts 357°
2026-04-25 02:03 17.62893 -76.78809 31938 ft 476 kts 357°
2026-04-25 02:03 17.69495 -76.78575 31945 ft 476 kts 357°
2026-04-25 02:04 17.76109 -76.78343 31936 ft 476 kts 357°
2026-04-25 02:04 17.82694 -76.78125 31937 ft 475 kts 356°
2026-04-25 02:05 17.89318 -76.77910 31939 ft 475 kts 357°
2026-04-25 02:05 17.95835 -76.78348 31965 ft 465 kts 344°
2026-04-25 02:06 18.02156 -76.79799 31966 ft 464 kts 343°
2026-04-25 02:06 18.08475 -76.81208 31961 ft 464 kts 343°
2026-04-25 02:07 18.14790 -76.82615 31962 ft 464 kts 343°
2026-04-25 02:07 18.21108 -76.84023 31961 ft 464 kts 343°
2026-04-25 02:08 18.27385 -76.85422 31967 ft 462 kts 343°
2026-04-25 02:08 18.33681 -76.86827 31967 ft 462 kts 343°
2026-04-25 02:09 18.39982 -76.88233 31965 ft 462 kts 343°
2026-04-25 02:09 18.46275 -76.89641 31968 ft 462 kts 343°
2026-04-25 02:10 18.52565 -76.91040 31967 ft 462 kts 343°
2026-04-25 02:10 18.58865 -76.92442 31972 ft 462 kts 343°
2026-04-25 02:11 18.65118 -76.93843 31967 ft 462 kts 343°
2026-04-25 02:11 18.71407 -76.95253 31977 ft 461 kts 343°
2026-04-25 02:12 18.77688 -76.96661 31971 ft 461 kts 343°
2026-04-25 02:12 18.83973 -76.98071 31975 ft 462 kts 343°
2026-04-25 02:13 18.90271 -76.99479 31970 ft 462 kts 343°
2026-04-25 02:13 18.96511 -77.00883 31970 ft 462 kts 343°
2026-04-25 02:14 19.02805 -77.02296 31976 ft 462 kts 343°
2026-04-25 02:14 19.09091 -77.03710 31974 ft 462 kts 343°
2026-04-25 02:15 19.15383 -77.05136 31977 ft 462 kts 343°
2026-04-25 02:15 19.21664 -77.06554 31972 ft 462 kts 343°
2026-04-25 02:16 19.27950 -77.07971 31968 ft 462 kts 343°
2026-04-25 02:16 19.34240 -77.09418 31968 ft 460 kts 341°
2026-04-25 02:17 19.40375 -77.11178 31968 ft 459 kts 340°
2026-04-25 02:17 19.46548 -77.12979 31964 ft 459 kts 340°
2026-04-25 02:18 19.52690 -77.14759 31967 ft 459 kts 340°
2026-04-25 02:18 19.58884 -77.16572 31966 ft 459 kts 340°
2026-04-25 02:19 19.65006 -77.18357 31964 ft 459 kts 340°
2026-04-25 02:19 19.71161 -77.20152 31966 ft 459 kts 340°
2026-04-25 02:20 19.77313 -77.21945 31972 ft 458 kts 340°
2026-04-25 02:20 19.83471 -77.23742 31971 ft 458 kts 340°
2026-04-25 02:21 19.89621 -77.25536 31969 ft 458 kts 340°
2026-04-25 02:21 19.95744 -77.27326 31966 ft 458 kts 340°
2026-04-25 02:22 20.01895 -77.29131 31976 ft 458 kts 339°
2026-04-25 02:22 20.08054 -77.30931 31967 ft 458 kts 340°
2026-04-25 02:23 20.14213 -77.32726 31967 ft 458 kts 340°
2026-04-25 02:23 20.20337 -77.34516 31965 ft 459 kts 340°
2026-04-25 02:24 20.26496 -77.36315 31961 ft 459 kts 340°
2026-04-25 02:24 20.32662 -77.38130 31964 ft 459 kts 340°
2026-04-25 02:25 20.38814 -77.39934 31964 ft 459 kts 340°
2026-04-25 02:25 20.44970 -77.41744 31964 ft 458 kts 340°
2026-04-25 02:26 20.51120 -77.43553 31963 ft 459 kts 340°
2026-04-25 02:26 20.57244 -77.45365 31964 ft 458 kts 340°
2026-04-25 02:27 20.63409 -77.47120 31963 ft 458 kts 340°
2026-04-25 02:27 20.69580 -77.48869 31963 ft 459 kts 340°
2026-04-25 02:28 20.72676 -77.49752 31959 ft 459 kts 340°